Find Starlink 2354

NORAD ID: 47894 Int'l Des: 2021-021 Owner: SPXS Country: US Constellation: starlink operational
LEOCIRCULAR

Live-Position

3D-Globus wird geladen...

Über Starlink 2354

Beschreibung wird geladen...

Nächste Überflüge

Passes for default location (London). Set your location on the main map for personalized predictions.

Höhenverlauf

Loading altitude history...

Zweizeiliger Elementsatz

1 47894U 21021AL 26129.98052084 .00009870 00000-0 32929-3 0 9996
2 47894 53.1549 343.1033 0002782 92.1209 268.0111 15.31711749285575
Epoch: 9. Mai 2026 • Age: 14 hours

Aktueller Status

Höhe 480.9 km
Geschwindigkeit 7.62 km/s
Subsatellitenpunkt -29.54°S, 114.87°W
Startdatum 14. März 2021
Alter 5.1 years
Typ internet

Technische Details

Klassifizierung Payload
Masse 260.00 kg
Trockenmasse 248.00 kg
Gesamtmasse 260.00 kg
Länge 0.20 m
Durchmesser 2.80 m
Spannweite 9.00 m
Form Box + pan
Hersteller SPXS
Bus-Typ Starlink
Phasenstatus In Orbit
Besitzer/Staat SPXS/US

Most Searched